Regional Weather Roundup
Issued by NWS

Home | Current Version | Previous Version | Graphics & Text | Print | Product List | Glossary On
Versions: 1 2 3 4 5 6 7 8 9 10 11 12 13 14 15 16 17 18 19 20 21 22 23 24 25 26 27 28 29 30 31 32 33 34 35 36 37 38 39 40 41 42 43 44 45 46 47 48 49 50
000
ASUS43 KFSD 211202
RWRSD

WEATHER ROUNDUP FOR SOUTH DAKOTA
NATIONAL WEATHER SERVICE SIOUX FALLS SD
600 AM CST SUN DEC 21 2014

NOTE: "FAIR" INDICATES FEW OR NO CLOUDS BELOW 12,000 FEET WITH NO
SIGNIFICANT WEATHER AND/OR OBSTRUCTIONS TO VISIBILITY.


SDZ001>005-009-010-012>017-211300-
NORTHWEST AND NORTH CENTRAL SOUTH DAKOTA

CITY           SKY/WX    TMP DP  RH WIND       PRES   REMARKS
BUFFALO          N/A     27  20  75 SE7       29.49F WCI  19
FAITH            N/A     24  20  84 S13       29.59F WCI  12
MOBRIDGE       PTCLDY    23  21  92 SE8       29.64F WCI  14
$$

SDZ012>016-024>037-041>051-057-063-072>074-211300-
SOUTHWEST AND SOUTH CENTRAL SOUTH DAKOTA

CITY           SKY/WX    TMP DP  RH WIND       PRES   REMARKS
RAPID CTY ARPT CLEAR     24  20  84 W5        29.59F WCI  18
PIERRE         PTCLDY    23  21  92 SE8       29.67F WCI  14
CUSTER         CLEAR     27  21  78 W10       29.59F WCI  17
ELLSWORTH AFB  CLEAR     27  20  77 W8        29.57F WCI  18
PHILIP         CLEAR     21  19  92 E3        29.63F FOG
PINE RIDGE     PTCLDY    28  22  78 W6        29.66F WCI  22
WINNER         FAIR      36  26  67 SE7       29.69F
$$

SDZ004>011-016>023-039-040-211300-
NORTHEAST SOUTH DAKOTA

CITY           SKY/WX    TMP DP  RH WIND       PRES   REMARKS
ABERDEEN       CLOUDY    30  29  96 S12       29.76F FOG     WCI  20
WATERTOWN      CLOUDY    29  28  96 S12       29.76F FOG     WCI  19
SISSETON         N/A     30  29  96 SW8       29.78F WCI  22
$$

SDZ017-020-022-023-036>040-048>070-211300-
SOUTHEAST SOUTH DAKOTA

CITY           SKY/WX    TMP DP  RH WIND       PRES   REMARKS
SIOUX FALLS    FOG       32  32 100 S10       29.81S VSB 1   WCI  24
HURON          FOG       31  30  96 S12       29.76F VSB 1   WCI  22
MITCHELL       CLOUDY    31  31 100 S12       29.78F FOG     WCI  22
YANKTON        CLOUDY    32  30  93 S10       29.82F WCI  24
$$

ABBREVIATIONS USED IN REMARKS
   TC - TEMPERATURE IN CELSIUS
  WCI - WIND CHILL INDEX
   HX - HEAT INDEX
  VSB - VISIBILITY



USA.gov is the U.S. government's official web portal to all federal, state and local government web resources and services.